Вернуться в каталог

STARLINK-30605

АктивенСвязьVLEO
NORAD 58101·PAYLOAD·🇺🇸 United States

Запущен Oct 21, 2023 с Vandenberg Space Force Base

Loading…

Ближайшие Пролёты (ближайшие 24 часа)

TLE

СвежийSource: CelesTrak SupGP

Эпоха: Sep 15, 2026, 01:42 UTC

1 58101C 23161E   26258.07131944  .00036846  00000+0  10880-2 0  2583
2 58101  53.1602   3.3137 0001254  73.3208 260.4758 15.34390702    13

Отслеживайте STARLINK-30605 в реальном времени с AllMySat

Download on the App Store